GW2240 Weather Reports


Display with metric or nautical units.
time (UTC)temp
F
wind
direction
speed
MPH
gust
MPH
rain 1hr
in
rain 24hr
in
rain mn
in
humidity
%
barometer
mb
20260504023056 66 194 0.0 0.0 0.00 0.00 0.00 66 1017.9
20260504021557 66 194 0.0 0.0 0.00 0.00 0.00 66 1017.9
20260504020104 67 194 0.0 0.0 0.00 0.00 0.00 64 1017.6
20260504014558 68 194 0.0 0.0 0.00 0.00 0.00 62 1017.6
20260504013058 69 194 0.0 0.0 0.00 0.00 0.00 61 1017.5
20260504011554 69 194 0.0 0.0 0.00 0.00 0.00 61 1017.4
20260504010053 70 194 0.0 0.0 0.00 0.00 0.00 58 1017.4
20260504004553 71 194 0.0 0.0 0.00 0.00 0.00 57 1017.4
20260504003054 73 194 0.0 0.0 0.00 0.00 0.00 55 1017.4
20260504001556 74 159 0.0 0.0 0.00 0.00 0.00 53 1017.5
20260504000053 74 231 0.0 0.0 0.00 0.00 0.00 52 1017.6
20260503234549 75 237 0.0 0.0 0.00 0.00 0.00 50 1017.6
20260503233048 76 190 0.0 2.0 0.00 0.00 0.00 47 1017.6
20260503231547 76 175 0.0 1.0 0.00 0.00 0.00 47 1017.8
20260503230103 76 194 0.0 0.0 0.00 0.00 0.00 48 1017.7
20260503224546 77 197 0.0 0.0 0.00 0.00 0.00 45 1017.9
20260503223045 77 255 0.0 2.0 0.00 0.00 0.00 45 1018.0
20260503221543 77 173 0.0 2.0 0.00 0.00 0.00 46 1018.2
20260503220042 78 194 0.0 0.0 0.00 0.00 0.00 48 1018.2
20260503214543 77 79 0.0 0.0 0.00 0.00 0.00 46 1018.4
20260503213039 79 159 0.0 3.0 0.00 0.00 0.00 42 1018.7
20260503211548 80 152 0.0 3.0 0.00 0.00 0.00 42 1018.9
20260503210035 80 31 0.0 2.0 0.00 0.00 0.00 42 1018.9
20260503204534 80 173 0.0 1.0 0.00 0.00 0.00 45 1019.4
20260503203030 80 159 0.0 0.0 0.00 0.00 0.00 46 1019.7
20260503201528 79 205 0.0 1.0 0.00 0.00 0.00 43 1020.1
20260503200034 80 335 0.0 0.0 0.00 0.00 0.00 40 1020.2
20260503194525 81 164 0.0 3.0 0.00 0.00 0.00 43 1020.6
20260503193029 81 159 0.0 2.0 0.00 0.00 0.00 44 1020.9
20260503191521 82 135 0.0 2.0 0.00 0.00 0.00 41 1021.1
20260503190021 82 360 1.0 5.0 0.00 0.00 0.00 41 1021.1
20260503184519 80 203 0.0 0.0 0.00 0.00 0.00 47 1021.4
20260503183018 81 346 0.0 2.0 0.00 0.00 0.00 41 1021.6
20260503181516 80 154 0.0 1.0 0.00 0.00 0.00 45 1021.8
20260503180025 80 285 0.0 2.0 0.00 0.00 0.00 43 1022.1
20260503174516 79 159 0.0 1.0 0.00 0.00 0.00 44 1022.4
20260503173013 79 179 0.0 2.0 0.00 0.00 0.00 50 1022.6
20260503171508 78 187 0.0 2.0 0.00 0.00 0.00 51 1022.8
20260503081544 55 20 0.0 0.0 0.00 0.00 0.00 93 1021.0
20260503071542 56 20 0.0 0.0 0.00 0.00 0.00 93 1021.1
20260503054531 57 20 0.0 0.0 0.00 0.00 0.00 92 1021.4
20260503053028 58 20 0.0 0.0 0.00 0.00 0.00 91 1021.2
20260503051534 58 20 0.0 0.0 0.00 0.00 0.00 91 1021.1
20260503050022 58 20 0.0 0.0 0.00 0.00 0.00 90 1021.1
20260503044527 59 20 0.0 0.0 0.00 0.00 0.00 90 1021.0
20260503043022 59 20 0.0 0.0 0.00 0.00 0.00 89 1020.9
20260503041522 59 20 0.0 0.0 0.00 0.00 0.00 88 1020.9
20260503040022 59 19 0.0 0.0 0.00 0.00 0.00 88 1020.9
20260503034521 60 20 0.0 0.0 0.00 0.00 0.00 86 1020.8
20260503033033 61 20 0.0 0.0 0.00 0.00 0.00 86 1020.4
20260503031520 61 20 0.0 0.0 0.00 0.00 0.00 86 1020.4
20260503030037 61 20 0.0 0.0 0.00 0.00 0.00 85 1020.4
20260503024528 62 20 0.0 0.0 0.00 0.01 0.00 83 1020.5